Chronos : Grand Prix des États-Unis 2018

Ils méprisent les légendes, ne se déterminent que face aux faits et au jugement de la piste, leurs arguments font l'économie du sentiment et leur grammaire se nomme triangulation. Ils n'aspirent pas à convaincre, intimement certains de ne pas défendre une opinion mais d'énoncer la Vérité. Ce lieu est leur sanctuaire, le dernier conservatoire de leurs Prophéties.

Modérateurs: sheon, Nicklaus

Chronos : Grand Prix des États-Unis 2018

Messagede Hugues le 19 Oct 2018, 17:58

En attendant mieux, du fait d'une panne:

1ère séance d'essais libres


La séance a été courue sur piste humide et sous temps pluvieux.
La séance a été interrompue sous drapeau rouge de 10:39:51 à 10:50:00 locales du fait de graviers ramenés sur la piste par une excursion hors piste de Charles Leclerc.

Hugues
"Movies and friendship... those are mysteries."
Avatar de l'utilisateur
Hugues
Michel Desjoyeaux virtuel
 
Messages: 315
Inscription: 26 Fév 2003, 05:14

Re: Chronos : Grand Prix des États-Unis 2018

Messagede Hugues le 19 Oct 2018, 22:46

(réservé, au cas où)
"Movies and friendship... those are mysteries."
Avatar de l'utilisateur
Hugues
Michel Desjoyeaux virtuel
 
Messages: 315
Inscription: 26 Fév 2003, 05:14

Re: Chronos : Grand Prix des États-Unis 2018

Messagede Hugues le 19 Oct 2018, 22:47

La hiérarchie et les meilleurs partiels de chacun des pilotes à l'issue de la 2ème séance d'essais libres :
Code: Tout sélectionner
01 44 L.HAMILTON       1:48.716          28.4  43.9  36.4  2:12.940  3
02 10 P.GASLY          1:49.728    1.01  28.7  43.9  36.7  2:11.797 10
03 33 M.VERSTAPPEN     1:49.798    1.08  28.4  44.2  37.2  1:57.912  5
04 14 F.ALONSO         1:51.728    3.01  28.6  45.1  38.0  2:09.954  3
05 27 N.HULKENBERG     1:52.208    3.49  29.5  44.8  37.9  2:38.800  6
06 28 B.HARTLEY        1:52.505    3.79  29.4  44.7  38.1  2:10.630 19
07  9 M.ERICSSON       1:53.070    4.35  29.5  45.1  38.4  2:13.667  9
08  2 S.VANDOORNE      1:53.354    4.64  29.1  45.3  38.9  2:09.235 10
09  7 K.RAIKKONEN      1:53.443    4.73  29.9  44.8  38.5  5:37.920  7
10  5 S.VETTEL         1:53.912    5.20  29.2  45.6  39.0  2:08.528  8
11 16 C.LECLERC        1:54.101    5.38  29.4  45.9  38.6  2:07.138  9
12 18 L.STROLL         1:54.637    5.92  30.1  45.6  38.9  2:17.243  5
13 11 S.PEREZ          1:54.963    6.25  29.7  45.8  39.0  2:20.149  6
14 31 E.OCON           1:55.348    6.63  29.5  46.2  39.5  2:07.020  6
15 35 S.SIROTKIN       1:55.446    6.73  30.1  45.7  38.9  2:19.865  8
16 55 C.SAINZ                            29.3  45.3  43.4  1:54.420  2
17  3 D.RICCIARDO                                                    0
18  8 R.GROSJEAN                                                     0
19 20 K.MAGNUSSEN                                                    0
20 77 V.BOTTAS                                                       0


La séance s'est courue comme le matin sur piste humide et sous temps pluvieux.

Hugues
"Movies and friendship... those are mysteries."
Avatar de l'utilisateur
Hugues
Michel Desjoyeaux virtuel
 
Messages: 315
Inscription: 26 Fév 2003, 05:14

Re: Chronos : Grand Prix des États-Unis 2018

Messagede Hugues le 19 Oct 2018, 22:48

La chronologie chronométrique des améliorations de chacun des pilotes lors de la 2ème séance d'essais libres:
Code: Tout sélectionner
[14:51:16] B. HARTLEY     1:58.773 (1)
[14:53:13] B. HARTLEY     1:57.109 (1)
[14:54:20] K. RAIKKONEN   1:53.443 (1)
[14:57:28] B. HARTLEY     1:55.370 (2)
[15:01:01] S. SIROTKIN    1:55.446 (3)
[15:01:45] B. HARTLEY     1:55.163 (2)
[15:01:53] L. STROLL      1:55.713 (4)
[15:04:21] C. LECLERC     1:55.001 (2)
[15:04:43] M. ERICSSON    1:54.879 (2)
[15:06:03] B. HARTLEY     1:54.559 (2)
[15:06:11] L. STROLL      1:54.637 (3)
[15:10:17] B. HARTLEY     1:54.106 (2)
[15:10:59] P. GASLY       1:53.295 (1)
[15:15:05] P. GASLY       1:52.751 (1)
[15:20:44] S. VANDOORNE   1:54.684 (5)
[15:21:12] S. VETTEL      1:55.264 (8)
[15:21:57] N. HULKENBERG  1:52.773 (2)
[15:23:06] S. VETTEL      1:54.451 (5)
[15:23:50] N. HULKENBERG  1:52.208 (1)
[15:24:20] P. GASLY       1:50.199 (1)
[15:24:41] S. VANDOORNE   1:53.778 (4)
[15:24:49] B. HARTLEY     1:52.759 (3)
[15:25:06] E. OCON        2:02.716 (11)
[15:25:12] S. PEREZ       1:55.635 (11)
[15:25:25] M. VERSTAPPEN  1:50.284 (2)
[15:25:35] L. HAMILTON    1:48.716 (1)
[15:26:35] S. VANDOORNE   1:53.725 (7)
[15:27:02] E. OCON        1:55.431 (12)
[15:27:08] S. PEREZ       1:54.963 (11)
[15:27:13] S. VETTEL      1:54.324 (8)
[15:28:16] P. GASLY       1:49.728 (2)
[15:28:50] M. ERICSSON    1:53.128 (6)
[15:28:57] E. OCON        1:55.348 (13)
[15:29:27] C. LECLERC     1:54.142 (9)
[15:29:35] M. VERSTAPPEN  1:49.798 (3)
[15:30:00] F. ALONSO      1:51.728 (4)
[15:30:34] S. VANDOORNE   1:53.354 (8)
[15:30:43] M. ERICSSON    1:53.070 (7)
[15:31:07] S. VETTEL      1:53.912 (10)
[15:31:13] B. HARTLEY     1:52.505 (6)
[15:31:22] C. LECLERC     1:54.101 (11)


Hugues
"Movies and friendship... those are mysteries."
Avatar de l'utilisateur
Hugues
Michel Desjoyeaux virtuel
 
Messages: 315
Inscription: 26 Fév 2003, 05:14

Re: Chronos : Grand Prix des États-Unis 2018

Messagede Hugues le 20 Oct 2018, 20:30

La hiérarchie et les meilleurs partiels de chacun des pilotes à l'issue de la 3ème séance d'essais libres :
Code: Tout sélectionner
01  5 S.VETTEL         1:33.797          25.1  37.6  31.1  1:41.384 20
02  7 K.RAIKKONEN      1:33.843    0.05  24.9  37.4  31.5  1:43.909 21
03 44 L.HAMILTON       1:33.870    0.07  25.0  37.4  31.4  1:59.847 23
04 77 V.BOTTAS         1:34.556    0.76  25.3  37.7  31.4  1:47.820 21
05 33 M.VERSTAPPEN     1:34.703    0.91  25.4  37.8  31.5  1:41.485 21
06  3 D.RICCIARDO      1:34.910    1.11  25.4  37.9  31.4  1:50.838 20
07 16 C.LECLERC        1:35.365    1.57  25.5  38.1  31.7  2:12.955 21
08 11 S.PEREZ          1:35.411    1.61  25.5  38.0  31.8  1:59.197 21
09 55 C.SAINZ          1:35.450    1.65  25.6  38.2  31.6  1:40.160 21
10  8 R.GROSJEAN       1:35.468    1.67  25.3  38.1  31.8  1:52.184 19
11 31 E.OCON           1:35.562    1.76  25.4  38.1  31.9  1:54.717 22
12 10 P.GASLY          1:35.713    1.92  25.6  38.3  31.8  1:53.051 27
13 20 K.MAGNUSSEN      1:35.770    1.97  25.4  38.3  32.0  2:12.829 19
14 27 N.HULKENBERG     1:35.882    2.08  25.7  38.1  31.6  1:56.833 19
15  9 M.ERICSSON       1:36.000    2.20  25.7  38.4  31.9  2:17.138 21
16 18 L.STROLL         1:36.188    2.39  25.8  38.1  32.2  1:50.246 21
17 35 S.SIROTKIN       1:36.193    2.40  25.7  38.4  31.9  1:56.005 20
18  2 S.VANDOORNE      1:36.302    2.50  25.6  38.6  31.9  2:42.475 23
19 28 B.HARTLEY        1:36.330    2.53  25.8  38.4  31.9  1:50.110 26
20 14 F.ALONSO         1:36.332    2.54  25.5  38.4  32.2  1:48.173 20


Hugues
"Movies and friendship... those are mysteries."
Avatar de l'utilisateur
Hugues
Michel Desjoyeaux virtuel
 
Messages: 315
Inscription: 26 Fév 2003, 05:14

Re: Chronos : Grand Prix des États-Unis 2018

Messagede Hugues le 20 Oct 2018, 20:32

La chronologie chronométrique des améliorations de chacun des pilotes lors de la 3ème séance d'essais libres:
Code: Tout sélectionner
[13:03:34] C. LECLERC     1:42.459 (1)
[13:03:42] C. SAINZ       1:41.100 (1)
[13:03:52] M. ERICSSON    1:42.832 (3)
[13:03:57] F. ALONSO      1:38.092 (1)
[13:03:57] K. MAGNUSSEN   1:41.568 (3)
[13:04:02] K. RAIKKONEN   1:35.514 (1)
[13:04:11] S. VANDOORNE   1:38.297 (3)
[13:04:21] R. GROSJEAN    1:40.538 (4)
[13:04:27] S. VETTEL      1:35.553 (2)
[13:04:43] M. VERSTAPPEN  1:37.575 (3)
[13:04:54] D. RICCIARDO   1:37.700 (4)
[13:05:03] L. STROLL      1:38.130 (6)
[13:05:25] E. OCON        1:38.350 (8)
[13:05:31] S. SIROTKIN    1:40.911 (10)
[13:05:35] M. ERICSSON    1:41.842 (13)
[13:05:47] S. PEREZ       1:38.265 (7)
[13:06:01] R. GROSJEAN    1:40.337 (10)
[13:06:18] P. GASLY       1:41.467 (13)
[13:06:57] C. LECLERC     1:40.755 (11)
[13:07:02] N. HULKENBERG  1:41.025 (13)
[13:07:15] M. ERICSSON    1:41.269 (15)
[13:07:21] K. MAGNUSSEN   1:41.541 (17)
[13:07:52] V. BOTTAS      1:40.685 (11)
[13:08:00] P. GASLY       1:41.039 (15)
[13:08:10] L. HAMILTON    1:51.209 (19)
[13:09:06] E. OCON        1:37.959 (5)
[13:09:12] L. STROLL      1:37.890 (5)
[13:09:21] R. GROSJEAN    1:40.249 (10)
[13:09:26] S. PEREZ       1:38.158 (8)
[13:09:29] F. ALONSO      1:38.063 (7)
[13:09:32] V. BOTTAS      1:40.669 (11)
[13:09:40] P. GASLY       1:40.882 (13)
[13:09:52] L. HAMILTON    1:40.519 (11)
[13:10:24] N. HULKENBERG  1:41.013 (16)
[13:10:28] C. SAINZ       1:40.957 (16)
[13:10:38] M. ERICSSON    1:41.216 (18)
[13:10:46] K. MAGNUSSEN   1:40.753 (13)
[13:11:02] R. GROSJEAN    1:40.052 (10)
[13:11:37] S. VANDOORNE   1:37.347 (3)
[13:11:59] C. LECLERC     1:40.658 (12)
[13:12:07] N. HULKENBERG  1:40.998 (18)
[13:12:10] C. SAINZ       1:40.896 (16)
[13:12:21] M. ERICSSON    1:41.035 (19)
[13:12:38] E. OCON        1:36.856 (3)
[13:12:51] S. PEREZ       1:37.831 (7)
[13:13:01] B. HARTLEY     1:41.237 (20)
[13:13:03] P. GASLY       1:40.757 (15)
[13:13:11] L. HAMILTON    1:40.245 (11)
[13:13:48] N. HULKENBERG  1:40.588 (12)
[13:14:35] V. BOTTAS      1:40.412 (12)
[13:14:51] L. HAMILTON    1:40.062 (11)
[13:15:22] C. LECLERC     1:40.638 (14)
[13:15:38] S. SIROTKIN    1:40.875 (17)
[13:15:52] C. SAINZ       1:39.460 (10)
[13:16:16] V. BOTTAS      1:40.225 (13)
[13:16:23] P. GASLY       1:40.360 (14)
[13:17:07] N. HULKENBERG  1:40.403 (15)
[13:17:20] S. SIROTKIN    1:40.733 (17)
[13:17:56] V. BOTTAS      1:40.216 (13)
[13:19:45] P. GASLY       1:40.254 (14)
[13:19:49] B. HARTLEY     1:40.965 (19)
[13:21:31] B. HARTLEY     1:40.721 (17)
[13:23:10] B. HARTLEY     1:40.392 (15)
[13:24:14] K. RAIKKONEN   1:34.419 (1)
[13:24:51] B. HARTLEY     1:40.306 (15)
[13:26:10] S. VETTEL      1:34.551 (2)
[13:28:07] P. GASLY       1:40.197 (13)
[13:30:40] K. MAGNUSSEN   1:37.529 (5)
[13:30:56] S. VANDOORNE   1:36.302 (3)
[13:31:21] R. GROSJEAN    1:36.517 (4)
[13:32:53] V. BOTTAS      1:34.556 (3)
[13:33:45] L. STROLL      1:36.758 (6)
[13:34:04] C. SAINZ       1:35.641 (4)
[13:34:11] C. LECLERC     1:36.225 (5)
[13:34:20] E. OCON        1:35.562 (4)
[13:34:46] M. ERICSSON    1:37.241 (10)
[13:35:17] N. HULKENBERG  1:35.984 (6)
[13:35:34] S. PEREZ       1:35.745 (6)
[13:36:57] R. GROSJEAN    1:36.231 (9)
[13:37:35] S. SIROTKIN    1:36.748 (11)
[13:37:46] L. STROLL      1:36.525 (11)
[13:37:52] L. HAMILTON    1:35.207 (4)
[13:38:41] M. ERICSSON    1:36.764 (14)
[13:40:39] K. RAIKKONEN   1:33.843 (1)
[13:40:47] M. VERSTAPPEN  1:34.994 (4)
[13:40:54] F. ALONSO      1:36.332 (13)
[13:42:04] D. RICCIARDO   1:35.098 (5)
[13:42:08] S. VETTEL      1:33.797 (1)
[13:45:20] P. GASLY       1:36.375 (15)
[13:45:27] B. HARTLEY     1:36.330 (14)
[13:46:06] L. HAMILTON    1:34.560 (4)
[13:49:03] P. GASLY       1:36.211 (11)
[13:53:57] K. MAGNUSSEN   1:35.770 (10)
[13:54:21] S. SIROTKIN    1:36.193 (12)
[13:54:43] C. LECLERC     1:35.365 (7)
[13:54:56] R. GROSJEAN    1:35.468 (8)
[13:55:09] M. ERICSSON    1:36.000 (14)
[13:56:02] N. HULKENBERG  1:35.882 (13)
[13:56:58] L. STROLL      1:36.188 (15)
[13:57:11] M. VERSTAPPEN  1:34.703 (5)
[13:57:25] S. PEREZ       1:35.411 (8)
[13:58:01] D. RICCIARDO   1:34.910 (6)
[13:58:06] C. SAINZ       1:35.450 (9)
[13:58:16] L. HAMILTON    1:33.870 (3)
[14:01:03] P. GASLY       1:35.713 (12)


Hugues
"Movies and friendship... those are mysteries."
Avatar de l'utilisateur
Hugues
Michel Desjoyeaux virtuel
 
Messages: 315
Inscription: 26 Fév 2003, 05:14

Re: Chronos : Grand Prix des États-Unis 2018

Messagede Hugues le 20 Oct 2018, 22:24

La hiérarchie et les meilleurs partiels de chacun des pilotes à l'issue de la 1ère période de qualification :
Code: Tout sélectionner
01 44 L.HAMILTON       1:34.130          25.1  37.5  31.4  2:04.383  5
02 77 V.BOTTAS         1:34.518    0.39  25.4  37.8  31.3  1:50.529  5
03  5 S.VETTEL         1:34.569    0.44  25.4  37.7  31.4  2:00.459  5
04  7 K.RAIKKONEN      1:34.703    0.57  25.2  37.8  31.5  1:49.525  5
05  3 D.RICCIARDO      1:34.755    0.62  25.4  37.9  31.4  1:46.214  5
06 33 M.VERSTAPPEN     1:34.766    0.64  25.2  37.8  31.5  2:03.013  4
07 10 P.GASLY          1:34.850    0.72  25.6  37.7  31.5  2:13.080  9
08 31 E.OCON           1:34.876    0.75  25.3  37.8  31.7  1:51.079  6
09 55 C.SAINZ          1:34.891    0.76  25.5  37.9  31.4  2:01.421  6
10  8 R.GROSJEAN       1:34.892    0.76  25.1  38.0  31.9  2:00.792  5
11 27 N.HULKENBERG     1:34.932    0.80  25.4  37.9  31.6  2:05.183  6
12 20 K.MAGNUSSEN      1:34.972    0.84  25.2  37.9  31.8  1:59.487  6
13 16 C.LECLERC        1:35.069    0.94  25.4  37.9  31.6  2:12.323  8
14 11 S.PEREZ          1:35.193    1.06  25.4  38.1  31.7  1:53.524  5
15 28 B.HARTLEY        1:35.206    1.08  25.7  38.0  31.5  2:11.353  9
16 14 F.ALONSO         1:35.294    1.16  25.3  38.3  31.7  2:13.368  6
17 35 S.SIROTKIN       1:35.362    1.23  25.5  38.1  31.8  2:08.284  6
18 18 L.STROLL         1:35.480    1.35  25.4  38.2  31.9  2:09.185  8
19  9 M.ERICSSON       1:35.536    1.41  25.4  38.3  31.8  2:05.043  8
20  2 S.VANDOORNE      1:35.735    1.60  25.5  38.3  31.9  2:10.811  6


Hugues
"Movies and friendship... those are mysteries."
Avatar de l'utilisateur
Hugues
Michel Desjoyeaux virtuel
 
Messages: 315
Inscription: 26 Fév 2003, 05:14

Re: Chronos : Grand Prix des États-Unis 2018

Messagede Hugues le 20 Oct 2018, 22:25

La chronologie chronométrique des améliorations de chacun des pilotes lors de la 1ère période de qualification:
Code: Tout sélectionner
[16:03:42] B. HARTLEY     1:36.943 (1)
[16:04:01] P. GASLY       1:36.457 (1)
[16:04:40] K. RAIKKONEN   1:34.938 (1)
[16:04:55] S. VETTEL      1:34.569 (1)
[16:04:57] L. STROLL      1:46.030 (5)
[16:05:03] M. ERICSSON    1:36.451 (3)
[16:05:11] C. LECLERC     1:35.944 (3)
[16:05:14] P. GASLY                ()
[16:05:18] S. SIROTKIN    1:36.300 (4)
[16:08:12] K. RAIKKONEN   1:34.703 (2)
[16:08:23] E. OCON        1:35.478 (3)
[16:08:31] M. VERSTAPPEN  1:34.766 (3)
[16:08:37] S. VANDOORNE   1:36.444 (7)
[16:08:42] L. STROLL      1:36.510 (9)
[16:08:58] V. BOTTAS      1:34.518 (1)
[16:09:06] M. ERICSSON    1:36.374 (8)
[16:09:10] C. LECLERC     1:35.655 (6)
[16:09:16] L. HAMILTON    1:34.176 (1)
[16:09:23] D. RICCIARDO   1:34.957 (6)
[16:09:27] S. PEREZ       1:35.193 (7)
[16:09:33] C. SAINZ       1:35.150 (7)
[16:09:41] F. ALONSO      1:35.819 (11)
[16:09:46] N. HULKENBERG  1:35.268 (9)
[16:10:28] K. MAGNUSSEN   1:35.389 (10)
[16:11:38] B. HARTLEY     1:35.703 (13)
[16:11:46] R. GROSJEAN    1:34.892 (6)
[16:11:51] P. GASLY       1:35.192 (9)
[16:13:10] D. RICCIARDO   1:34.755 (5)
[16:13:18] L. HAMILTON    1:34.130 (1)
[16:18:15] E. OCON        1:34.876 (7)
[16:18:22] F. ALONSO      1:35.294 (13)
[16:18:29] S. VANDOORNE   1:35.735 (17)
[16:18:37] M. ERICSSON    1:35.536 (15)
[16:18:42] N. HULKENBERG  1:34.932 (9)
[16:18:46] C. LECLERC     1:35.069 (10)
[16:18:52] K. MAGNUSSEN   1:34.972 (10)
[16:18:59] S. SIROTKIN    1:35.362 (16)
[16:19:03] B. HARTLEY     1:35.206 (15)
[16:19:07] L. STROLL      1:35.480 (18)
[16:19:11] C. SAINZ       1:34.891 (8)
[16:19:17] P. GASLY       1:34.850 (7)


Hugues
"Movies and friendship... those are mysteries."
Avatar de l'utilisateur
Hugues
Michel Desjoyeaux virtuel
 
Messages: 315
Inscription: 26 Fév 2003, 05:14

Re: Chronos : Grand Prix des États-Unis 2018

Messagede Hugues le 20 Oct 2018, 22:46

La hiérarchie et les meilleurs partiels de chacun des pilotes à l'issue de la 2ème période de qualification :
Code: Tout sélectionner
01  7 K.RAIKKONEN      1:32.884          24.7  37.1  31.0  1:59.581  8
02  5 S.VETTEL         1:33.079    0.20  24.8  36.9  31.0  1:59.375 11
03 44 L.HAMILTON       1:33.480    0.60  24.9  37.1  31.0  1:58.463 13
04 77 V.BOTTAS         1:33.702    0.82  24.9  37.3  31.1  1:58.973 11
05  3 D.RICCIARDO      1:34.185    1.30  25.3  37.8  31.1  2:05.485  8
06 16 C.LECLERC        1:34.255    1.37  25.0  37.7  31.4  2:11.489 14
07  8 R.GROSJEAN       1:34.419    1.53  25.0  37.9  31.4  2:06.380 11
08 31 E.OCON           1:34.522    1.64  25.2  37.6  31.6  2:11.444 12
09 11 S.PEREZ          1:34.525    1.64  25.3  37.7  31.4  2:04.179 11
10 27 N.HULKENBERG     1:34.564    1.68  25.3  37.8  31.3  2:10.191 12
11 55 C.SAINZ          1:34.566    1.68  25.3  37.7  31.4  2:04.118 12
12 20 K.MAGNUSSEN      1:34.732    1.85  25.0  37.9  31.6  2:00.952 12
13 10 P.GASLY                            61.8  42.5  36.0  2:23.293 13
14 28 B.HARTLEY                          52.2  40.6  34.7  2:08.224 13
15 33 M.VERSTAPPEN                                         1:34.766  4
16 14 F.ALONSO         1:35.294    2.41  25.3  38.3  31.7  4:59.247  6
17 35 S.SIROTKIN       1:35.362    2.48  25.5  38.1  31.8  9:57.672  6
18 18 L.STROLL         1:35.480    2.60  25.4  38.2  31.9  7:05.026  8
19  9 M.ERICSSON       1:35.536    2.65  25.4  38.3  31.8  6:03.155  8
20  2 S.VANDOORNE      1:35.735    2.85  25.5  38.3  31.9  6:06.618  6


Hugues
"Movies and friendship... those are mysteries."
Avatar de l'utilisateur
Hugues
Michel Desjoyeaux virtuel
 
Messages: 315
Inscription: 26 Fév 2003, 05:14

Re: Chronos : Grand Prix des États-Unis 2018

Messagede Hugues le 20 Oct 2018, 22:49

La chronologie chronométrique des améliorations de chacun des pilotes lors de la 2ème période de qualification:
Code: Tout sélectionner
[16:28:59] V. BOTTAS      1:33.702 (1)
[16:29:09] L. HAMILTON    1:34.077 (2)
[16:29:13] N. HULKENBERG  1:34.564 (3)
[16:29:16] K. RAIKKONEN   1:32.884 (1)
[16:29:22] S. VETTEL      1:33.079 (2)
[16:29:43] C. LECLERC     1:34.255 (5)
[16:29:59] D. RICCIARDO   1:34.185 (5)
[16:30:23] E. OCON        1:34.546 (7)
[16:30:27] C. SAINZ       1:34.694 (9)
[16:32:01] K. MAGNUSSEN   1:34.732 (10)
[16:32:29] R. GROSJEAN    1:34.467 (7)
[16:32:47] L. HAMILTON    1:33.480 (3)
[16:33:07] S. PEREZ       1:34.525 (8)
[16:40:28] E. OCON        1:34.522 (8)
[16:40:33] R. GROSJEAN    1:34.419 (7)
[16:41:09] C. SAINZ       1:34.566 (11)


Hugues
"Movies and friendship... those are mysteries."
Avatar de l'utilisateur
Hugues
Michel Desjoyeaux virtuel
 
Messages: 315
Inscription: 26 Fév 2003, 05:14

Re: Chronos : Grand Prix des États-Unis 2018

Messagede Hugues le 20 Oct 2018, 23:06

La hiérarchie et les meilleurs partiels de chacun des pilotes à l'issue de la 3ème période de qualification :
Code: Tout sélectionner
01 44 L.HAMILTON       1:32.237          24.7  36.8  30.7  2:14.944 20
02  5 S.VETTEL         1:32.298    0.06  24.6  36.9  30.9  2:07.957 18
03  7 K.RAIKKONEN      1:32.307    0.07  24.6  36.9  30.8  2:07.020 15
04 77 V.BOTTAS         1:32.616    0.38  24.8  37.0  30.8  2:16.584 17
05  3 D.RICCIARDO      1:33.494    1.26  25.0  37.7  30.8  2:06.833 14
06 31 E.OCON           1:34.145    1.91  25.2  37.6  31.3  2:16.283 18
07 27 N.HULKENBERG     1:34.215    1.98  25.3  37.7  31.2  2:14.365 18
08  8 R.GROSJEAN       1:34.250    2.01  25.0  37.9  31.4  2:07.007 17
09 16 C.LECLERC        1:34.420    2.18  25.1  37.9  31.5  2:13.007 17
10 11 S.PEREZ          1:34.594    2.36  25.4  37.7  31.5  2:10.445 17
11 55 C.SAINZ          1:34.566    2.33  25.3  37.7  31.4  1:34.566 12
12 20 K.MAGNUSSEN      1:34.732    2.50  25.0  37.9  31.6  1:34.745 12
13 10 P.GASLY                            61.8  42.5  36.0  5:28.274 13
14 28 B.HARTLEY                          52.2  40.6  34.7  2:08.327 13
15 33 M.VERSTAPPEN                                         1:34.766  4
16 14 F.ALONSO         1:35.294    3.06  25.3  38.3  31.7  4:59.247  6
17 35 S.SIROTKIN       1:35.362    3.12  25.5  38.1  31.8  9:57.672  6
18 18 L.STROLL         1:35.480    3.24  25.4  38.2  31.9  7:05.026  8
19  9 M.ERICSSON       1:35.536    3.30  25.4  38.3  31.8  6:03.155  8
20  2 S.VANDOORNE      1:35.735    3.50  25.5  38.3  31.9  6:06.618  6


Hugues
"Movies and friendship... those are mysteries."
Avatar de l'utilisateur
Hugues
Michel Desjoyeaux virtuel
 
Messages: 315
Inscription: 26 Fév 2003, 05:14

Re: Chronos : Grand Prix des États-Unis 2018

Messagede Hugues le 20 Oct 2018, 23:11

La chronologie chronoémétrique des améliorations de chacun des pilotes lors de la 3ème période de qualification:
Code: Tout sélectionner
[16:51:36] V. BOTTAS      1:32.686 (1)
[16:51:41] N. HULKENBERG  1:34.842 (2)
[16:51:49] L. HAMILTON    1:32.567 (1)
[16:51:54] K. RAIKKONEN   1:33.024 (3)
[16:52:08] E. OCON        1:35.145 (5)
[16:52:11] S. VETTEL      1:32.655 (2)
[16:52:24] S. PEREZ       1:35.440 (7)
[16:52:34] R. GROSJEAN    1:34.731 (5)
[16:52:37] D. RICCIARDO   1:33.494 (5)
[17:00:02] V. BOTTAS      1:32.616 (2)
[17:00:0?] N. HULKENBERG  1:34.215 (6)
[17:00:0?] C. SAINZ       1:34.566 (7)
[17:00:0?] K. MAGNUSSEN   1:34.732 (9)
[17:00:11] K. RAIKKONEN   1:32.307 (1)
[17:00:20] L. HAMILTON    1:32.237 (1)
[17:00:31] E. OCON        1:34.145 (6)
[17:00:36] R. GROSJEAN    1:34.250 (8)
[17:00:40] S. VETTEL      1:32.298 (2)
[17:00:51] S. PEREZ       1:34.594 (10)
[17:00:57] C. LECLERC     1:34.420 (9)


Hugues
"Movies and friendship... those are mysteries."
Avatar de l'utilisateur
Hugues
Michel Desjoyeaux virtuel
 
Messages: 315
Inscription: 26 Fév 2003, 05:14

Re: Chronos : Grand Prix des États-Unis 2018

Messagede Aym le 21 Oct 2018, 20:50

Championnat du Monde des Pilotes 2018
1 2 3 4 5 6 7 8 9 10 11 12 13 14 15 16 17 18 19 20 21
1Image Lewis Hamilton (44)3461815122525151025-182525182525252515
2Image Sebastian Vettel (5)2762525412121825101525-1825121515812
3Image Kimi Räikkönen (7)22115-1518-1281518151515-1810121025
4Image Valtteri Bottas (77)21741818-1810186-121810121512181810
5Image Max Verstappen (33)1918-10-152151825-12-151018101518
6Image Daniel Ricciardo (3)14612-25-10251212-10-12--8812-
7Image Nicolas Hülkenberg (27)61688--462-810---1--8
8Image Sergio Pérez (11)57
----->Force India---152---616-
----->Racing Point Force India106-164
9Image Kevin Magnussen (20)53-101-8--8102-64--4--
10Image Fernando Alonso (14)50106664---44-4--6---
11Image Esteban Ocon (31)49
----->Force India-1---82-864-
----->Racing Point Force India88-22-
12Image Carlos Sainz, Jr. (55)451-2106144---2-44-16
13Image Romain Grosjean (8)31--------12-816---4-
14Image Pierre Gasly (10)28-12---6-----82-----
15Image Charles Leclerc (16)21---81-112-----26--
16Image Stoffel Vandoorne (2)824-2--------------
17Image Marcus Ericsson (9)7-2------1-2-1----1
18Image Lance Stroll (18)6---4---------2----
19Image Brendon Hartley (28)4---1------1------2
20Image Sergei Sirotkin (35)1-------------1----

Championnat du Monde des Ecuries 2018
1 2 3 4 5 6 7 8 9 10 11 12 13 14 15 16 17 18 19 20 21
1Image Mercedes5632233302543252831-304335304037434325
2Image Ferrari497402519301230332533401533253025271837
3Image Red Bull33720-35-2527273025101212151026182718
4Image Renault10678101065106-8102-45-114
5Image Haas84-101-8--82228710--44-
6Image McLaren581210684---44-4--6---
7Image Racing Point Force India471814-384
8Image Toro Rosso32-12-1-6----182----2
9Image Sauber28-2-81-113-2-1-26-1
10Image Williams7---4---------3----
11Image Force India0------------

Force India est rachetée avant le GP de Belgique, disparaît, et perd tous ses points (59)
L'informatique n'est pas une science exacte, on n'est jamais à l'abri d'un succès
Avatar de l'utilisateur
Aym
papaquintintien
 
Messages: 25704
Inscription: 18 Fév 2003, 18:05
Localisation: Toulouse


Retourner vers Forum statistiques

Qui est en ligne

Utilisateurs parcourant ce forum: Aucun utilisateur enregistré et 1 invité